EW6672 Weather Reports


time (UTC)temp
C
wind
direction
speed
KPH
gust
KPH
rain 1hr
cm
rain 24hr
cm
rain mn
cm
humidity
%
barometer
mb
20180815091018 26 135 3.2 8.0 0.00 0.00 0.00 60 918.5
20180815090017 25 135 3.2 8.0 0.00 0.00 0.00 59 918.5
20180815085018 26 112 1.6 9.7 0.00 0.00 0.00 60 918.6
20180815084018 25 315 1.6 8.0 0.00 0.00 0.00 59 918.6
20180815083018 25 135 3.2 11.3 0.00 0.00 0.00 62 918.7
20180815082018 24 135 3.2 11.3 0.00 0.00 0.00 62 918.6
20180815081019 24 135 1.6 4.8 0.00 0.00 0.00 59 918.7
20180815080018 25 0.0 4.8 0.00 0.00 0.00 63 918.7
20180815075020 25 0.0 3.2 0.00 0.00 0.00 65 918.6
20180815074018 25 0.0 4.8 0.00 0.00 0.00 63 918.5
20180815073018 25 135 1.6 6.4 0.00 0.00 0.00 60 918.3
20180815072019 24 135 3.2 4.8 0.00 0.00 0.00 60 918.3
20180815071019 23 112 1.6 6.4 0.00 0.00 0.00 65 918.3
20180815070018 22 0.0 0.0 0.00 0.00 0.00 71 918.4
20180815065018 22 0.0 0.0 0.00 0.00 0.00 76 918.6
20180815064017 21 0.0 0.0 0.00 0.00 0.00 80 918.6
20180815063018 20 0.0 0.0 0.00 0.00 0.00 77 918.4
20180815062018 19 0.0 0.0 0.00 0.00 0.00 85 918.3
20180815061018 18 0.0 0.0 0.00 0.00 0.00 90 918.3
20180815060018 17 0.0 0.0 0.00 0.00 0.00 95 918.3
20180815055018 17 0.0 0.0 0.00 0.00 0.00 94 918.2
20180815054018 16 0.0 0.0 0.00 0.00 0.00 96 918.1
20180815053018 16 0.0 0.0 0.00 0.00 0.00 99 917.9
20180815052017 15 0.0 0.0 0.00 0.00 0.00 99 917.8
20180815051018 13 0.0 0.0 0.00 0.00 0.00 99 917.7
20180815050018 13 0.0 0.0 0.00 0.00 0.00 99 917.8
20180815045018 12 0.0 0.0 0.00 0.00 0.00 99 917.7
20180815044018 12 0.0 0.0 0.00 0.00 0.00 99 917.6
20180815043019 11 0.0 0.0 0.00 0.00 0.00 99 917.6
20180815042018 11 0.0 0.0 0.00 0.00 0.00 99 917.7
20180815041018 11 0.0 0.0 0.00 0.00 0.00 98 917.6
20180815040018 10 0.0 0.0 0.00 0.00 0.00 98 917.7
20180815035019 10 0.0 0.0 0.00 0.00 0.00 98 917.7
20180815034018 11 0.0 0.0 0.00 0.00 0.00 98 917.9
20180815033018 11 0.0 0.0 0.00 0.00 0.00 98 917.9
20180815032018 10 0.0 0.0 0.00 0.00 0.00 98 917.8
20180815031017 11 0.0 0.0 0.00 0.00 0.00 98 917.9
20180815030018 11 0.0 0.0 0.00 0.00 0.00 98 917.9
20180815025018 11 0.0 0.0 0.00 0.00 0.00 98 918.0
20180815024018 10 0.0 0.0 0.00 0.00 0.00 98 918.0
20180815023019 10 0.0 0.0 0.00 0.00 0.00 97 917.9
20180815022018 11 0.0 0.0 0.00 0.00 0.00 98 917.9
20180815021018 11 0.0 0.0 0.00 0.00 0.00 97 918.0
20180815020018 11 0.0 0.0 0.00 0.00 0.00 97 917.9
20180815015018 11 0.0 0.0 0.00 0.00 0.00 97 918.0
20180815014017 11 0.0 0.0 0.00 0.00 0.00 97 918.1
20180815013018 12 0.0 0.0 0.00 0.00 0.00 97 918.2
20180815012018 11 0.0 0.0 0.00 0.00 0.00 97 918.2
20180815011018 12 0.0 0.0 0.00 0.00 0.00 96 918.2
20180815010018 12 0.0 0.0 0.00 0.00 0.00 97 918.2
20180815005019 12 0.0 0.0 0.00 0.00 0.00 96 918.2
20180815004018 12 0.0 0.0 0.00 0.00 0.00 96 918.3
20180815003018 12 0.0 0.0 0.00 0.00 0.00 97 918.4
20180815002018 12 0.0 0.0 0.00 0.00 0.00 96 918.4
20180815001018 12 0.0 0.0 0.00 0.00 0.00 95 918.6
20180815000038 13 0.0 0.0 0.00 0.00 0.00 95 918.6
20180814235018 13 0.0 0.0 0.00 0.00 0.00 96 918.7
20180814234019 13 0.0 0.0 0.00 0.00 0.00 96 918.7
20180814233018 13 0.0 0.0 0.00 0.00 0.00 95 918.7
20180814232018 13 0.0 1.6 0.00 0.00 0.00 95 918.7
20180814231018 13 0.0 0.0 0.00 0.00 0.00 97 918.8
20180814230018 13 0.0 0.0 0.00 0.00 0.00 97 918.9
20180814225020 13 0.0 0.0 0.00 0.00 0.00 95 918.9
20180814224018 13 0.0 0.0 0.00 0.00 0.00 95 918.9
20180814223020 13 0.0 0.0 0.00 0.00 0.00 96 919.0
20180814222020 13 0.0 0.0 0.00 0.00 0.00 96 919.0
20180814221019 13 0.0 0.0 0.00 0.00 0.00 95 919.1
20180814220018 13 0.0 0.0 0.00 0.00 0.00 95 919.0
20180814215017 13 0.0 0.0 0.00 0.00 0.00 94 919.3
20180814214019 13 0.0 0.0 0.00 0.00 0.00 95 919.4
20180814213018 13 0.0 0.0 0.00 0.00 0.00 96 919.2
20180814212017 13 0.0 0.0 0.00 0.00 0.00 94 919.1
20180814211017 13 0.0 0.0 0.00 0.00 0.00 92 919.1
20180814210020 14 0.0 0.0 0.00 0.00 0.00 92 919.1
20180814205225 14 0.0 0.0 0.00 0.00 0.00 95 919.3